[[{"header":{"parameterUnit":"m.s-1","parameterCategory":1,"la1":30.2991,"la2":30.254,"lo1":-89.0895,"lo2":-89.0444,"dy":0.0017,"dx":0.0017,"nx":28,"ny":28,"refTime":"2024-10-05T09:00:00:Z","depth":0,"parameterNumber":2,"parameterNumberName":"U-component_of_WINDS"},"data":[0,0,0,0,0,0,0,0,0,0,0,0,0,0,0,0,0,0,0,0,0,0,0,0,0,0,0,0,0,0,0,0,0,0,0,0,0,0,0,0,0,0,0,0,0,0,0,0,0,0,0,0,0,0,0,0,0,0,-4.2426,-4.2428,0,-4.2569,-4.2571,-4.2572,-4.2478,-4.2473,-4.2469,-4.2465,-4.2615,-4.2623,-4.2631,0,0,0,0,0,0,0,0,0,0,0,0,0,-4.2074,-4.2081,-4.2426,-4.2428,-4.243,-4.2569,-4.2571,-4.2573,-4.2478,-4.2473,-4.2468,-4.2463,-4.2613,-4.2622,-4.2632,0,0,0,0,0,0,0,0,0,0,0,0,0,-4.2223,-4.2083,-4.2426,-4.2399,-4.2398,-4.2569,-4.2571,-4.2573,-4.248,-4.2473,-4.2466,-4.246,-4.261,-4.2621,-4.2633,-4.2839,0,0,-4.267,-4.2676,0,0,0,0,0,0,0,0,-4.2215,-4.2236,-4.2401,-4.2401,-4.24,-4.2499,-4.2502,-4.2663,-4.2481,-4.2449,-4.2465,-4.2457,-4.2582,-4.2596,-4.2637,-4.2846,-4.2852,-4.2671,-4.2679,-4.2684,-4.2687,0,0,0,0,0,0,0,-4.2205,-4.2229,-4.2483,-4.2404,-4.2403,-4.2381,-4.2395,-4.2532,-4.2551,-4.2451,-4.2445,-4.2463,-4.2581,-4.2626,-4.264,-4.2855,-4.2671,-4.2682,-4.2689,-4.2694,-4.3241,-4.3248,0,0,0,0,0,0,-4.2196,-4.2221,-4.2478,-4.2487,-4.2289,-4.2393,-4.2408,-4.2474,-4.2549,-4.2554,-4.2468,-4.2458,-4.2609,-4.2626,-4.2645,-4.2893,-4.2684,-4.2695,-4.2702,-4.3234,-4.3242,-4.325,0,0,0,0,0,0,-4.2189,-4.222,-4.2472,-4.2353,-4.2383,-4.2406,-4.248,-4.248,-4.2525,-4.2561,-4.2565,-4.2511,-4.2604,-4.2628,-4.2792,-4.2897,-4.2701,-4.2712,-4.3225,-4.3236,-4.3246,-4.3389,0,0,0,0,0,0,-4.2179,-4.2218,-4.2296,-4.2355,-4.239,-4.2616,-4.2487,-4.2488,-4.2546,-4.2534,-4.2602,-4.2608,-4.2601,-4.2774,-4.2804,-4.291,-4.2721,-4.3216,-4.323,-4.3243,-4.3375,-4.3403,-4.3427,0,0,0,0,0,-4.2167,-4.233,-4.23,-4.2331,-4.2487,-4.2622,-4.2642,-4.263,-4.2555,-4.2634,-4.2657,-4.2605,-4.2879,-4.2792,-4.2824,-4.2936,-4.3209,-4.3226,-4.3242,-4.3363,-4.3397,-4.3427,0,0,0,0,0,0,-4.2284,-4.2338,-4.2305,-4.2492,-4.2553,-4.2606,-4.2705,-4.2667,-4.2751,-4.2737,-4.2719,-4.2735,-4.2906,-4.2936,-4.2838,-4.3139,-4.3033,-4.3056,-4.3114,-4.3147,-4.3173,-4.3163,-4.2731,0,0,0,0,0,-4.2331,-4.2435,-4.2477,-4.2638,-4.267,-4.2683,-4.2741,-4.2726,-4.2789,-4.2815,-4.285,-4.2914,-4.3015,-4.3082,-4.3176,-4.3377,-4.3392,-4.347,-4.3496,-4.3517,-4.3539,-4.365,-4.3686,-4.3304,-4.3304,-4.3303,0,0,-4.2431,-4.2473,-4.254,-4.2663,-4.2708,-4.2818,-4.2705,-4.2825,-4.2907,-4.2834,-4.2991,-4.3018,-4.3089,-4.3273,-4.3355,-4.3303,-4.3647,-4.3538,-4.3555,-4.3566,-4.367,-4.3707,-4.3739,-4.3315,-4.3313,-4.3311,0,0,-4.2669,-4.271,-4.285,-4.2898,-4.2968,-4.2975,-4.3008,-4.3067,-4.3083,-4.3239,-4.3187,-4.3283,-4.3457,-4.351,-4.356,-4.3817,-4.3774,-4.3848,-4.3987,-4.4095,-4.4125,-4.4152,-4.4246,-4.428,-4.3869,-4.3869,-4.387,0,-4.2785,-4.2946,-4.2927,-4.3052,-4.3108,-4.3045,-4.3187,-4.3235,-4.3333,-4.3374,-4.3313,-4.353,-4.3573,-4.3769,-4.3832,-4.3873,-4.3913,-4.3842,-4.4122,-4.4148,-4.4173,-4.4263,-4.4298,-4.3878,-4.3877,-4.3876,-4.3875,0,-4.3086,-4.3199,-4.3304,-4.3399,-4.3467,-4.36,-4.3602,-4.3673,-4.3652,-4.3666,-4.3827,-4.3876,-4.398,-4.4024,-4.4005,-4.4219,-4.4184,-4.4123,-4.4017,-4.4219,-4.4303,-4.4337,-4.3891,-4.3888,-4.3885,-4.3883,0,0,-4.3405,-4.3487,-4.3526,-4.3569,-4.3641,-4.3729,-4.3859,-4.3959,-4.4022,-4.4091,-4.4202,-4.4349,-4.4293,-4.435,-4.4336,-4.443,-4.4634,-4.4357,-4.4359,-4.441,-4.4875,-4.4923,-4.4963,-4.4604,-4.461,-4.4616,-4.487,0,-4.3649,-4.3876,-4.3862,-4.4076,-4.4181,-4.4122,-4.4236,-4.4293,-4.4309,-4.4402,-4.4419,-4.4526,-4.4442,-4.4476,-4.4566,-4.459,-4.4728,-4.4571,-4.471,-4.4715,-4.4697,-4.5007,-4.5058,-4.5296,-4.4903,-4.4908,-4.4912,0,-4.3965,-4.4045,-4.4269,-4.4326,-4.437,-4.4472,-4.4564,-4.4652,-4.4716,-4.4721,-4.4784,-4.4754,-4.4888,-4.4775,-4.496,-4.4854,-4.4909,-4.4929,-4.4938,-4.4953,-4.4828,-4.5034,-4.5371,-4.5408,-4.4963,-4.4959,-4.4956,0,-4.4179,-4.4341,-4.4497,-4.4535,-4.4605,-4.4679,-4.4711,-4.4769,-4.483,-4.491,-4.495,-4.5045,-4.5098,-4.5173,-4.517,-4.5088,-4.5358,-4.5245,-4.5369,-4.5369,-4.5431,-4.5428,-4.5786,-4.5462,-4.5461,-4.546,-4.546,0,-4.4455,-4.4595,-4.4594,-4.469,-4.4846,-4.4828,-4.4983,-4.5008,-4.506,-4.5161,-4.5114,-4.521,-4.5199,-4.5297,-4.5295,-4.545,-4.5473,-4.5483,-4.5481,-4.5489,-4.5488,-4.5528,-4.5512,-4.547,-4.5468,-4.5466,-4.5464,0,-4.4721,-4.4725,-4.4892,-4.4944,-4.496,-4.5073,-4.5118,-4.521,-4.522,-4.5349,-4.5378,-4.5397,-4.5509,-4.5512,-4.5641,-4.564,-4.583,-4.5808,-4.5808,-4.5805,-4.593,-4.5919,-4.6328,-4.6382,-4.602,-4.6023,-4.6026,0,-4.4899,-4.5005,-4.5068,-4.5132,-4.5169,-4.5272,-4.5335,-4.5321,-4.5388,-4.5469,-4.5552,-4.5659,-4.5744,-4.5926,-4.5952,-4.6051,-4.6033,-4.6169,-4.6048,-4.6053,-4.6039,-4.6034,-4.6046,-4.6195,-4.6199,-4.6202,-4.6204,0,-4.5215,-4.5212,-4.5303,-4.5395,-4.5471,-4.5543,-4.561,-4.5665,-4.5659,-4.5738,-4.5851,-4.5917,-4.6048,-4.6156,-4.6251,-4.6286,-4.6247,-4.6242,-4.6276,-4.6287,-4.6284,-4.629,-4.5876,-4.6234,-4.6231,-4.6229,-4.6227,-4.6226,-4.5445,-4.5537,-4.5596,-4.5699,-4.5748,-4.5812,-4.5901,-4.5923,-4.6016,-4.6121,-4.6107,-4.6234,-4.6296,-4.642,-4.6463,-4.6563,-4.6516,-4.6565,-4.6578,-4.6592,-4.6606,-4.6265,-4.658,-4.6579,-4.6578,-4.6577,-4.6577,0,-4.5761,-4.5795,-4.589,-4.5985,-4.6067,-4.6019,-4.609,-4.6163,-4.6275,-4.6335,-4.6419,-4.655,-4.6655,-4.6688,-4.6789,-4.6863,-4.6848,-4.6891,-4.6887,-4.6896,-4.6641,-4.6602,-4.6902,-4.6902,-4.6902,-4.6902,-4.6902,-4.6902,-4.5935,-4.609,-4.6094,-4.6272,-4.6306,-4.6429,-4.6474,-4.6533,-4.6581,-4.6729,-4.6815,-4.6835,-4.6886,-4.699,-4.7085,-4.7092,-4.7133,-4.7185,-4.7185,-4.6946,-4.6914,-4.6883,-4.6847,-4.7193,-4.7193,-4.7432,-4.7434,-4.7436]},{"header":{"parameterUnit":"m.s-1","parameterCategory":1,"la1":30.2991,"la2":30.254,"lo1":-89.0895,"lo2":-89.0444,"dy":0.0017,"dx":0.0017,"nx":28,"ny":28,"refTime":"2024-10-05T09:00:00:Z","depth":0,"parameterNumber":3,"parameterNumberName":"V-component_of_WINDS"},"data":[0,0,0,0,0,0,0,0,0,0,0,0,0,0,0,0,0,0,0,0,0,0,0,0,0,0,0,0,0,0,0,0,0,0,0,0,0,0,0,0,0,0,0,0,0,0,0,0,0,0,0,0,0,0,0,0,0,0,-4.6797,-4.6796,0,-4.677,-4.677,-4.6769,-4.6672,-4.667,-4.6668,-4.6665,-4.6639,-4.664,-4.6642,0,0,0,0,0,0,0,0,0,0,0,0,0,-4.6764,-4.6765,-4.6797,-4.6796,-4.6796,-4.677,-4.677,-4.6769,-4.6672,-4.667,-4.6667,-4.6664,-4.6639,-4.664,-4.6642,0,0,0,0,0,0,0,0,0,0,0,0,0,-4.6762,-4.6765,-4.6797,-4.6745,-4.674,-4.677,-4.677,-4.6769,-4.6673,-4.667,-4.6666,-4.6663,-4.6638,-4.664,-4.6642,-4.6721,0,0,-4.6648,-4.6649,0,0,0,0,0,0,0,0,-4.6762,-4.6763,-4.6753,-4.6748,-4.6743,-4.6721,-4.6748,-4.6753,-4.6674,-4.6698,-4.6665,-4.6662,-4.6669,-4.6668,-4.6671,-4.672,-4.6719,-4.6648,-4.665,-4.6651,-4.6651,0,0,0,0,0,0,0,-4.6762,-4.6763,-4.6786,-4.6753,-4.6747,-4.6722,-4.6718,-4.6749,-4.6703,-4.6696,-4.6689,-4.6687,-4.6666,-4.6669,-4.6669,-4.6718,-4.6648,-4.665,-4.6651,-4.6652,-4.6829,-4.6832,0,0,0,0,0,0,-4.677,-4.6764,-4.6787,-4.6785,-4.6744,-4.6726,-4.6721,-4.6731,-4.6702,-4.6694,-4.669,-4.6682,-4.6667,-4.6667,-4.6668,-4.6757,-4.665,-4.6652,-4.6654,-4.6825,-4.6829,-4.6833,0,0,0,0,0,0,-4.6769,-4.6773,-4.6788,-4.6773,-4.6773,-4.673,-4.6742,-4.6732,-4.6735,-4.6697,-4.6689,-4.6701,-4.6664,-4.6665,-4.6708,-4.6754,-4.6653,-4.6655,-4.6821,-4.6826,-4.6831,-4.6936,0,0,0,0,0,0,-4.6769,-4.6773,-4.6803,-4.6774,-4.6774,-4.6829,-4.6745,-4.6734,-4.6739,-4.6729,-4.6706,-4.6699,-4.6662,-4.6705,-4.671,-4.6755,-4.6657,-4.6817,-4.6823,-4.6829,-4.6928,-4.6944,-4.6958,0,0,0,0,0,-4.6768,-4.6834,-4.6805,-4.6808,-4.681,-4.6832,-4.6832,-4.6787,-4.6743,-4.6773,-4.6748,-4.67,-4.6749,-4.6711,-4.6715,-4.6762,-4.6813,-4.6821,-4.6829,-4.6922,-4.6941,-4.6958,0,0,0,0,0,0,-4.687,-4.683,-4.6797,-4.6856,-4.6848,-4.6815,-4.6851,-4.681,-4.6815,-4.6805,-4.675,-4.6746,-4.6796,-4.6783,-4.6741,-4.6835,-4.6773,-4.6782,-4.6842,-4.686,-4.6875,-4.6876,-4.6658,0,0,0,0,0,-4.69,-4.6921,-4.6884,-4.6939,-4.6937,-4.6895,-4.6903,-4.6869,-4.6859,-4.6855,-4.6834,-4.6826,-4.6839,-4.6849,-4.6859,-4.6926,-4.6919,-4.696,-4.6975,-4.6988,-4.6996,-4.7028,-4.7046,-4.6859,-4.6859,-4.6858,0,0,-4.6961,-4.6941,-4.6958,-4.6959,-4.6949,-4.6972,-4.6893,-4.692,-4.6936,-4.6859,-4.6898,-4.6882,-4.6869,-4.6924,-4.6947,-4.6915,-4.7046,-4.6998,-4.7008,-4.7009,-4.7038,-4.7056,-4.7072,-4.6864,-4.6863,-4.6862,0,0,-4.7083,-4.7071,-4.7115,-4.7106,-4.7091,-4.7063,-4.7074,-4.7047,-4.7033,-4.7071,-4.7013,-4.7031,-4.7056,-4.7049,-4.7048,-4.7166,-4.7121,-4.7171,-4.7248,-4.7281,-4.7295,-4.7308,-4.7349,-4.7364,-4.718,-4.718,-4.718,0,-4.7161,-4.7192,-4.7143,-4.7173,-4.7175,-4.7106,-4.7149,-4.7144,-4.7134,-4.7136,-4.71,-4.7128,-4.7115,-4.7166,-4.7195,-4.7198,-4.7207,-4.7173,-4.7297,-4.731,-4.7321,-4.7359,-4.7374,-4.7186,-4.7185,-4.7185,-4.7184,0,-4.7287,-4.731,-4.7347,-4.7338,-4.7344,-4.7381,-4.7337,-4.7349,-4.7315,-4.729,-4.7328,-4.731,-4.7314,-4.7324,-4.7292,-4.7371,-4.7351,-4.7307,-4.7243,-4.7345,-4.738,-4.7394,-4.7195,-4.7192,-4.7191,-4.7189,0,0,-4.7474,-4.7436,-4.745,-4.7444,-4.7422,-4.7439,-4.7472,-4.7476,-4.7486,-4.7482,-4.7508,-4.7529,-4.7488,-4.7488,-4.7454,-4.7482,-4.7575,-4.7434,-4.7433,-4.746,-4.7658,-4.769,-4.7708,-4.7545,-4.7548,-4.755,-4.7659,0,-4.7589,-4.7643,-4.7599,-4.7662,-4.768,-4.7615,-4.7643,-4.7633,-4.761,-4.7623,-4.7598,-4.7614,-4.7559,-4.7558,-4.7583,-4.7558,-4.7613,-4.755,-4.7568,-4.7569,-4.7572,-4.7726,-4.7761,-4.7865,-4.7672,-4.7675,-4.7676,0,-4.773,-4.773,-4.7795,-4.7766,-4.7773,-4.78,-4.7798,-4.7812,-4.7798,-4.7779,-4.7778,-4.7736,-4.7766,-4.7704,-4.7744,-4.7701,-4.7706,-4.7695,-4.7698,-4.7697,-4.7628,-4.7728,-4.7897,-4.7912,-4.7697,-4.7696,-4.7694,0,-4.7858,-4.7874,-4.7914,-4.7911,-4.788,-4.79,-4.7888,-4.7871,-4.7876,-4.7875,-4.7877,-4.788,-4.7882,-4.7885,-4.7844,-4.7803,-4.7889,-4.7824,-4.7873,-4.7874,-4.7894,-4.7893,-4.8064,-4.79,-4.7899,-4.7899,-4.7899,0,-4.799,-4.8032,-4.797,-4.7995,-4.8039,-4.7988,-4.8033,-4.8014,-4.7999,-4.8018,-4.7962,-4.7981,-4.7926,-4.794,-4.7908,-4.7945,-4.7947,-4.7932,-4.7923,-4.7936,-4.7938,-4.7938,-4.7929,-4.7903,-4.7902,-4.7901,-4.7901,0,-4.814,-4.8101,-4.8139,-4.8106,-4.8099,-4.8133,-4.8104,-4.8125,-4.8098,-4.8123,-4.8126,-4.8084,-4.8096,-4.8056,-4.8063,-4.8041,-4.8095,-4.8075,-4.81,-4.8093,-4.8144,-4.8139,-4.832,-4.8341,-4.8165,-4.8167,-4.8168,0,-4.8226,-4.8256,-4.8226,-4.8234,-4.8225,-4.8239,-4.8243,-4.8194,-4.82,-4.8185,-4.8208,-4.8216,-4.8219,-4.8242,-4.8213,-4.8217,-4.8195,-4.8258,-4.8196,-4.8208,-4.8194,-4.8193,-4.8195,-4.8271,-4.8273,-4.8275,-4.8277,0,-4.8383,-4.8362,-4.8369,-4.8369,-4.8375,-4.8373,-4.8367,-4.8377,-4.8324,-4.8334,-4.8345,-4.8348,-4.8354,-4.8362,-4.836,-4.8347,-4.8303,-4.8297,-4.8308,-4.8321,-4.8334,-4.8326,-4.8133,-4.8293,-4.8291,-4.829,-4.8289,-4.8288,-4.8502,-4.8525,-4.8507,-4.8516,-4.8506,-4.8501,-4.8519,-4.8493,-4.8502,-4.8502,-4.8473,-4.849,-4.8474,-4.8466,-4.8458,-4.8471,-4.8441,-4.8459,-4.8462,-4.8467,-4.8475,-4.8333,-4.847,-4.847,-4.8469,-4.8469,-4.8469,0,-4.8655,-4.8639,-4.8648,-4.8641,-4.8648,-4.8606,-4.8596,-4.8605,-4.8621,-4.861,-4.8614,-4.8626,-4.8634,-4.8604,-4.8607,-4.8623,-4.8602,-4.8625,-4.8623,-4.862,-4.8502,-4.8491,-4.8641,-4.8641,-4.8641,-4.8641,-4.8641,-4.8641,-4.8735,-4.877,-4.8747,-4.8776,-4.876,-4.8776,-4.8774,-4.8769,-4.876,-4.8776,-4.8781,-4.8762,-4.8743,-4.8743,-4.8748,-4.8739,-4.8742,-4.8771,-4.8755,-4.8645,-4.8629,-4.8613,-4.8602,-4.8773,-4.8773,-4.8872,-4.8873,-4.8873]}]]